timestamp,wind_dir_avg,wind_spd_avg,wind_spd_max_dir,wind_spd_gust,battery_voltage,lat,long
2023-12-30 00:04:00+00:00,68.0,10.31,61.0,12.02,12.33,47.59359,-54.27349
2023-12-30 00:14:00+00:00,69.0,10.09,61.0,12.2,12.33,47.59359,-54.27349
2023-12-30 00:24:00+00:00,70.0,11.86,73.0,13.16,12.33,47.59359,-54.27349
2023-12-30 00:34:00+00:00,65.0,11.6,63.0,13.27,12.33,47.59359,-54.27349
2023-12-30 00:44:00+00:00,65.0,11.89,59.0,13.96,12.33,47.59359,-54.27349
2023-12-30 00:54:00+00:00,69.0,10.7,71.0,12.89,12.33,47.59359,-54.27349
2023-12-30 01:04:00+00:00,69.0,12.44,67.0,13.38,12.33,47.59359,-54.27349
2023-12-30 01:14:00+00:00,64.0,11.76,64.0,12.87,12.25,47.59359,-54.27349
2023-12-30 01:24:00+00:00,66.0,12.58,60.0,14.51,12.25,47.59359,-54.27349
2023-12-30 01:34:00+00:00,65.0,12.26,68.0,13.5,12.25,47.59359,-54.27349
2023-12-30 01:44:00+00:00,64.0,11.96,71.0,13.64,12.25,47.59359,-54.27349
2023-12-30 01:54:00+00:00,65.0,11.75,61.0,13.17,12.25,47.59359,-54.27349
2023-12-30 02:04:00+00:00,63.0,12.83,68.0,14.83,12.25,47.59359,-54.27349
2023-12-30 02:14:00+00:00,63.0,11.05,62.0,12.64,12.25,47.59359,-54.27349
2023-12-30 02:24:00+00:00,70.0,11.09,69.0,12.41,12.25,47.59359,-54.27349
2023-12-30 02:34:00+00:00,66.0,10.79,60.0,12.76,12.25,47.59359,-54.27349
2023-12-30 02:44:00+00:00,68.0,10.76,60.0,12.19,12.25,47.59359,-54.27349
2023-12-30 02:54:00+00:00,65.0,11.51,60.0,13.13,12.25,47.59359,-54.27349
2023-12-30 03:04:00+00:00,67.0,10.63,64.0,12.79,12.25,47.59359,-54.27349
2023-12-30 03:14:01+00:00,67.0,11.78,71.0,12.62,12.25,47.59359,-54.27349
2023-12-30 03:24:01+00:00,66.0,11.58,69.0,12.98,12.25,47.59359,-54.27349
2023-12-30 03:34:01+00:00,65.0,12.59,63.0,13.9,12.25,47.59359,-54.27349
2023-12-30 03:44:01+00:00,65.0,12.95,63.0,14.38,12.25,47.59359,-54.27349
2023-12-30 03:54:01+00:00,67.0,11.15,64.0,13.07,12.25,47.59359,-54.27349
2023-12-30 04:04:01+00:00,63.0,11.15,62.0,13.12,12.25,47.59359,-54.27349
2023-12-30 04:14:00+00:00,65.0,10.09,71.0,12.02,12.17,47.59359,-54.27349
2023-12-30 04:24:00+00:00,62.0,9.22,70.0,11.45,12.17,47.59359,-54.27349
2023-12-30 04:34:00+00:00,65.0,10.26,71.0,12.95,12.17,47.59359,-54.27349
2023-12-30 04:44:00+00:00,63.0,11.04,69.0,12.87,12.17,47.59359,-54.27349
2023-12-30 04:54:00+00:00,61.0,10.49,65.0,12.95,12.17,47.59359,-54.27349
2023-12-30 05:04:00+00:00,60.0,10.39,63.0,13.04,12.17,47.59359,-54.27349
2023-12-30 05:14:00+00:00,59.0,10.29,60.0,12.96,12.17,47.59359,-54.27349
2023-12-30 05:24:00+00:00,57.0,11.08,59.0,13.49,12.17,47.59359,-54.27349
2023-12-30 05:34:00+00:00,64.0,10.73,63.0,11.96,12.17,47.59359,-54.27349
2023-12-30 05:44:00+00:00,60.0,11.27,60.0,12.81,12.17,47.59359,-54.27349
2023-12-30 05:54:00+00:00,55.0,12.72,61.0,14.54,12.17,47.59359,-54.27349
2023-12-30 06:04:00+00:00,50.0,9.67,47.0,11.77,12.17,47.59359,-54.27349
2023-12-30 06:14:00+00:00,49.0,10.05,50.0,11.44,12.17,47.59359,-54.27349
2023-12-30 06:24:00+00:00,46.0,9.88,50.0,11.08,12.17,47.59359,-54.27349
2023-12-30 06:34:00+00:00,47.0,9.39,50.0,10.75,12.17,47.59359,-54.27349
2023-12-30 06:44:00+00:00,48.0,10.02,48.0,11.7,12.17,47.59359,-54.27349
2023-12-30 06:54:00+00:00,49.0,9.41,53.0,10.97,12.17,47.59359,-54.27349
2023-12-30 07:04:00+00:00,48.0,9.05,50.0,10.55,12.17,47.59359,-54.27349
2023-12-30 07:14:00+00:00,52.0,9.31,47.0,11.4,12.17,47.59359,-54.27349
2023-12-30 07:24:00+00:00,41.0,9.56,38.0,11.26,12.17,47.59359,-54.27349
2023-12-30 07:34:00+00:00,54.0,10.21,57.0,11.83,12.17,47.59359,-54.27349
2023-12-30 07:44:00+00:00,45.0,9.38,42.0,10.81,12.17,47.59359,-54.27349
2023-12-30 07:54:00+00:00,47.0,9.83,44.0,11.86,12.17,47.59359,-54.27349
2023-12-30 08:04:00+00:00,49.0,10.05,43.0,11.08,12.17,47.59359,-54.27349
2023-12-30 08:14:00+00:00,44.0,10.52,44.0,11.54,12.09,47.59359,-54.27349
2023-12-30 08:24:00+00:00,39.0,11.34,42.0,12.34,12.09,47.59359,-54.27349
2023-12-30 08:34:00+00:00,39.0,11.59,34.0,12.85,12.09,47.59359,-54.27349
2023-12-30 08:44:00+00:00,43.0,10.76,44.0,12.07,12.09,47.59359,-54.27349
2023-12-30 08:54:00+00:00,43.0,10.65,41.0,11.96,12.09,47.59359,-54.27349
2023-12-30 09:04:00+00:00,42.0,10.85,45.0,12.18,12.09,47.59359,-54.27349
2023-12-30 09:14:00+00:00,42.0,11.48,43.0,14.38,12.09,47.59359,-54.27349
2023-12-30 09:24:00+00:00,45.0,10.57,41.0,12.74,12.09,47.59359,-54.27349
2023-12-30 09:34:00+00:00,44.0,11.36,48.0,13.18,12.09,47.59359,-54.27349
2023-12-30 09:44:00+00:00,45.0,10.13,42.0,12.26,12.09,47.59359,-54.27349
2023-12-30 09:54:00+00:00,33.0,10.64,36.0,11.88,12.09,47.59359,-54.27349
2023-12-30 10:04:00+00:00,32.0,11.26,37.0,13.34,12.09,47.59359,-54.27349
2023-12-30 10:14:00+00:00,29.0,11.28,32.0,12.38,12.09,47.59359,-54.27349
2023-12-30 10:24:00+00:00,32.0,11.57,32.0,12.41,12.09,47.59359,-54.27349
2023-12-30 10:34:00+00:00,33.0,9.79,33.0,11.07,12.09,47.59359,-54.27349
2023-12-30 10:44:00+00:00,31.0,10.72,31.0,12.17,12.09,47.59359,-54.27349
2023-12-30 10:54:00+00:00,38.0,10.77,40.0,11.6,12.09,47.59359,-54.27349
2023-12-30 11:04:00+00:00,33.0,9.98,27.0,12.11,12.09,47.59359,-54.27349
2023-12-30 11:14:00+00:00,33.0,10.4,37.0,11.6,12.09,47.59359,-54.27349
2023-12-30 11:24:00+00:00,31.0,11.11,25.0,12.3,12.09,47.59359,-54.27349
2023-12-30 11:34:00+00:00,33.0,9.86,38.0,11.11,12.09,47.59359,-54.27349
2023-12-30 11:44:00+00:00,32.0,9.37,33.0,10.08,12.09,47.59359,-54.27349
2023-12-30 11:54:00+00:00,22.0,9.6,24.0,10.82,12.09,47.59359,-54.27349
2023-12-30 12:04:00+00:00,25.0,9.25,23.0,10.74,12.09,47.59359,-54.27349
2023-12-30 12:14:00+00:00,23.0,7.49,26.0,8.71,12.09,47.59359,-54.27349
2023-12-30 12:24:00+00:00,14.0,6.42,20.0,7.93,12.09,47.59359,-54.27349
2023-12-30 12:34:00+00:00,8.0,7.71,13.0,8.91,12.09,47.59359,-54.27349
2023-12-30 12:44:00+00:00,6.0,7.99,12.0,9.58,12.09,47.59359,-54.27349
2023-12-30 12:54:00+00:00,357.0,6.18,3.0,7.72,12.09,47.59359,-54.27349
2023-12-30 13:04:00+00:00,358.0,6.08,7.0,6.76,12.09,47.59359,-54.27349
2023-12-30 13:14:00+00:00,4.0,6.16,7.0,6.68,12.33,47.59359,-54.27349
2023-12-30 13:24:00+00:00,358.0,6.66,4.0,8.1,12.33,47.59359,-54.27349
2023-12-30 13:34:00+00:00,343.0,7.26,343.0,8.69,12.33,47.59359,-54.27349
2023-12-30 13:44:00+00:00,358.0,7.21,1.0,8.67,12.33,47.59359,-54.27349
2023-12-30 13:54:00+00:00,352.0,6.69,346.0,7.98,12.33,47.59359,-54.27349
2023-12-30 14:04:00+00:00,345.0,7.42,349.0,8.64,12.33,47.59359,-54.27349
2023-12-30 14:14:00+00:00,352.0,6.94,351.0,8.37,13.53,47.59359,-54.27349
2023-12-30 14:24:00+00:00,337.0,6.81,335.0,7.72,13.53,47.59359,-54.27349
2023-12-30 14:34:00+00:00,344.0,6.39,340.0,7.61,13.53,47.59359,-54.27349
2023-12-30 14:44:00+00:00,341.0,7.53,340.0,8.27,13.53,47.59359,-54.27349
2023-12-30 14:54:00+00:00,331.0,7.44,327.0,8.49,13.53,47.59359,-54.27349
2023-12-30 15:04:00+00:00,342.0,8.02,345.0,8.87,13.53,47.59359,-54.27349
2023-12-30 15:14:00+00:00,343.0,8.86,345.0,9.54,14.24,47.59359,-54.27349
2023-12-30 15:24:00+00:00,344.0,7.78,344.0,8.5,14.24,47.59359,-54.27349
2023-12-30 15:34:00+00:00,335.0,7.49,335.0,8.47,14.24,47.59359,-54.27349
2023-12-30 15:44:00+00:00,330.0,6.48,329.0,7.52,14.24,47.59359,-54.27349
2023-12-30 15:54:00+00:00,334.0,7.03,337.0,7.87,14.24,47.59359,-54.27349
2023-12-30 16:04:00+00:00,330.0,6.2,327.0,8.13,14.24,47.59359,-54.27349
2023-12-30 16:14:00+00:00,332.0,5.63,329.0,6.58,13.68,47.59359,-54.27349
2023-12-30 16:24:00+00:00,328.0,6.99,330.0,7.71,13.68,47.59359,-54.27349
2023-12-30 16:34:00+00:00,327.0,8.06,324.0,9.29,13.68,47.59359,-54.27349
2023-12-30 16:44:00+00:00,323.0,7.91,314.0,9.3,13.68,47.59359,-54.27349
2023-12-30 16:54:00+00:00,325.0,7.18,325.0,8.67,13.68,47.59359,-54.27349
2023-12-30 17:04:00+00:00,333.0,7.99,331.0,9.23,13.68,47.59359,-54.27349
2023-12-30 17:14:00+00:00,326.0,6.78,324.0,7.39,14.16,47.59359,-54.27349
2023-12-30 17:24:00+00:00,331.0,8.39,339.0,9.88,14.16,47.59359,-54.27349
2023-12-30 17:34:00+00:00,339.0,8.75,348.0,9.83,14.16,47.59359,-54.27349
2023-12-30 17:44:00+00:00,337.0,8.57,339.0,9.98,14.16,47.59359,-54.27349
2023-12-30 17:54:00+00:00,322.0,6.81,323.0,7.44,14.16,47.59359,-54.27349
2023-12-30 18:04:00+00:00,307.0,6.48,313.0,9.06,14.16,47.59359,-54.27349
2023-12-30 18:14:00+00:00,310.0,5.94,303.0,9.24,14.32,47.59359,-54.27349
2023-12-30 18:24:00+00:00,319.0,7.27,309.0,10.25,14.32,47.59359,-54.27349
2023-12-30 18:34:00+00:00,305.0,5.07,312.0,6.09,14.32,47.59359,-54.27349
2023-12-30 18:44:00+00:00,305.0,4.92,296.0,6.34,14.32,47.59359,-54.27349
2023-12-30 18:54:00+00:00,310.0,4.44,319.0,5.83,14.32,47.59359,-54.27349
2023-12-30 19:04:00+00:00,319.0,5.65,319.0,6.77,14.32,47.59359,-54.27349
2023-12-30 19:14:01+00:00,323.0,4.2,334.0,5.77,13.76,47.59359,-54.27349
2023-12-30 19:24:01+00:00,308.0,5.06,299.0,6.68,13.76,47.59359,-54.27349
2023-12-30 19:34:01+00:00,323.0,5.81,330.0,7.69,13.76,47.59359,-54.27349
2023-12-30 19:44:01+00:00,323.0,7.17,314.0,8.73,13.76,47.59359,-54.27349
2023-12-30 19:54:01+00:00,332.0,7.99,334.0,8.87,13.76,47.59359,-54.27349
2023-12-30 20:04:01+00:00,323.0,6.76,329.0,7.52,13.76,47.59359,-54.27349
2023-12-30 20:14:00+00:00,332.0,7.44,330.0,8.67,12.57,47.59359,-54.27349
2023-12-30 20:24:00+00:00,343.0,6.9,342.0,7.72,12.57,47.59359,-54.27349
2023-12-30 20:34:00+00:00,346.0,6.75,346.0,7.5,12.57,47.59359,-54.27349
2023-12-30 20:44:00+00:00,352.0,8.1,350.0,9.08,12.57,47.59359,-54.27349
2023-12-30 20:54:00+00:00,353.0,4.81,0.0,5.59,12.57,47.59359,-54.27349
2023-12-30 21:04:00+00:00,2.0,3.67,1.0,4.1,12.57,47.59359,-54.27349
2023-12-30 21:14:00+00:00,8.0,2.91,11.0,3.4,12.41,47.59359,-54.27349
2023-12-30 21:24:00+00:00,6.0,2.65,359.0,2.99,12.41,47.59359,-54.27349
2023-12-30 21:34:00+00:00,323.0,1.65,319.0,2.09,12.41,47.59359,-54.27349
2023-12-30 21:44:00+00:00,302.0,3.32,307.0,4.08,12.41,47.59359,-54.27349
2023-12-30 21:54:00+00:00,274.0,2.08,267.0,2.93,12.41,47.59359,-54.27349
2023-12-30 22:04:00+00:00,260.0,3.96,255.0,4.3,12.41,47.59359,-54.27349
2023-12-30 22:14:00+00:00,249.0,4.24,249.0,4.59,12.41,47.59359,-54.27349
2023-12-30 22:24:00+00:00,270.0,5.46,274.0,7.0,12.41,47.59359,-54.27349
2023-12-30 22:34:00+00:00,264.0,4.15,266.0,4.59,12.41,47.59359,-54.27349
2023-12-30 22:44:00+00:00,261.0,3.51,255.0,3.97,12.41,47.59359,-54.27349
2023-12-30 22:54:00+00:00,217.0,1.78,242.0,3.4,12.41,47.59359,-54.27349
2023-12-30 23:04:00+00:00,273.0,3.69,271.0,4.02,12.41,47.59359,-54.27349
2023-12-30 23:14:00+00:00,249.0,5.17,250.0,5.89,12.33,47.59359,-54.27349
2023-12-30 23:24:00+00:00,263.0,4.41,263.0,4.79,12.33,47.59359,-54.27349
2023-12-30 23:34:00+00:00,250.0,3.6,249.0,3.97,12.33,47.59359,-54.27349
2023-12-30 23:44:00+00:00,275.0,4.17,271.0,4.4,12.33,47.59359,-54.27349
2023-12-30 23:54:00+00:00,292.0,3.29,297.0,3.72,12.33,47.59359,-54.27349
